Track STARLINK-1133 now! 10-day predictions STARLINK-1133 is classified as:
1 45064U 20006W 21018.80487602 .00000247 00000-0 36079-4 0 9996 2 45064 53.0000 47.7812 0001038 92.7018 267.4089 15.05577463 54005